Flag for Mexico Weather past 2 weeks in Mexicali, Baja California, Mexico

Now
103 °F

Sunny.


Feels Like: 103 °F
Forecast: 86 / 103 °F
Wind: 6 mph from Southwest

Location: Imperial County Airport

Current Time: Jun 30, 2015 at 5:59:37 PM

Latest Report: Jun 30, 2015 at 4:53 PM


Visibility: 10 mi

Pressure: 29.71 "Hg

Humidity: 24%

Dew point: 59 °F

Location of MexicaliLocation

Historic Weather in Mexicali — Graph

°F

Mexicali temperature yesterday

Maximum temperature yesterday: 107 °F (at 3:53 PM)
Minimum temperature yesterday: 86 °F (at 1:53 AM)
Average temperature yesterday: 97 °F

Past Weeks' High & Low Weather Summary

 TemperatureHumidityPressure
High116 °F (Jun 18, 2:53 PM)79% (Jun 27, 2:53 AM)29.88 "Hg (Jun 27, 2:53 AM)
Low73 °F (Jun 24, 4:53 AM)3% (Jun 19, 3:53 PM)29.59 "Hg (Jun 19, 5:53 PM)
Average94 °F32%29.74 "Hg
* Reported Jun 15 3:53 PM — Jun 30 3:53 PM, Mexicali, Weather by CustomWeather, © 2015

Note: Actual official high and low records may vary slightly from our data, if they occured in-between our weather recording intervals... More about our weather records

Advertising

Mexicali weather history for previous 24 hours

 ConditionsComfort  
Time TempWeatherWind HumidityBarometerVisibility
3:53 PM
Tue, Jun 30
101 °FSunny.No wind25%29.74 "Hg10 mi
2:53 PM98 °FSunny.9 mph31%29.76 "Hg10 mi
1:53 PM98 °FSunny.13 mph27%29.77 "Hg10 mi
12:53 PM98 °FLight rain. Broken clouds.12 mph27%29.78 "Hg10 mi
11:53 AM104 °FSunny.22 mph24%29.85 "Hg8 mi
10:53 AM98 °FSunny.8 mph38%29.84 "Hg10 mi
9:53 AM95 °FSunny.14 mph49%29.83 "Hg10 mi
8:53 AM91 °FSunny.15 mph56%29.83 "Hg10 mi
7:53 AM87 °FSunny.23 mph59%29.83 "Hg10 mi
6:53 AM85 °FSunny.9 mph59%29.79 "Hg10 mi
5:53 AM84 °FClear.7 mph65%29.77 "Hg10 mi
4:53 AM83 °FClear.6 mph68%29.76 "Hg10 mi
3:53 AM84 °FClear.8 mph63%29.74 "Hg10 mi
2:53 AM85 °FClear.9 mph59%29.73 "Hg10 mi
1:53 AM87 °FClear.8 mph53%29.74 "Hg10 mi
12:53 AM93 °FClear.3 mph37%29.75 "Hg10 mi
11:53 PM
Mon, Jun 29
95 °FClear.7 mph34%29.74 "Hg10 mi
10:53 PM96 °FClear.8 mph34%29.75 "Hg10 mi
9:53 PM97 °FClear.9 mph34%29.75 "Hg10 mi
8:53 PM99 °FSunny.10 mph33%29.72 "Hg10 mi
7:53 PM104 °FSunny.9 mph25%29.71 "Hg10 mi
6:53 PM105 °FSunny.5 mph25%29.69 "Hg10 mi
5:53 PM106 °FSunny.5 mph25%29.69 "Hg10 mi
Weather by CustomWeather, © 2015

See weather overviewHow to use our weather pages